Regional Weather Roundup
Issued by NWS Boston, MA

Current Version | Previous Version | Text Only | Print | Product List | Glossary Off
Versions: 1 2 3 4 5 6 7 8 9 10 11 12 13 14 15 16 17 18 19 20 21 22 23 24 25 26 27 28 29 30 31 32 33 34 35 36 37 38 39 40 41 42 43 44 45 46 47 48 49 50

000
ASUS41 KBOX 271710
RWRBOX

REGIONAL WEATHER ROUNDUP
NATIONAL WEATHER SERVICE TAUNTON MA
100 PM EDT THU APR 27 2017

NOTE:  "FAIR" INDICATES FEW OR NO CLOUDS BELOW 12,000 FEET WITH NO
SIGNIFICANT WEATHER AND/OR OBSTRUCTIONS TO VISIBILITY.

MAZALL-271800-
EASTERN MASSACHUSETTS

CITY           SKY/WX    TMP DP  RH WIND       PRES   REMARKS
BOSTON         MOSUNNY   55  54  96 E9        29.92F
BEVERLY        CLOUDY    59  55  87 NE6       29.91F
LAWRENCE       CLOUDY    62  56  80 NE3       29.93F
BEDFORD        CLOUDY    62  54  74 VRB3      29.90F
BLUE HILL        N/A     64  56  75 CALM      29.90F
NORWOOD        MOSUNNY   66  58  75 VRB3      29.90F
MARSHFIELD     CLOUDY    54  52  94 NE7       29.92F
PLYMOUTH       CLOUDY    59  56  89 E7        29.92F
TAUNTON        CLOUDY    62  56  80 SE3       29.91F
NEW BEDFORD    CLOUDY    61  56  83 SE6       29.91F
$$

MAZALL-271800-
CAPE COD AND THE ISLANDS

CITY           SKY/WX    TMP DP  RH WIND       PRES   REMARKS
FALMOUTH         N/A     61  57  88 MISG      29.93
HYANNIS        CLOUDY    53  51  93 N5        29.92F
CHATHAM        CLOUDY    54  53  97 NW8       29.94S
PROVINCETOWN   CLOUDY    50  48  93 NW5       29.94F
NANTUCKET      MOSUNNY   61  54  77 N9        29.92F
MARTHAS VNYRD  CLOUDY    66  58  75 N10       29.91F
$$

MAZALL-271800-
CENTRAL AND WESTERN MASSACHUSETTS

CITY           SKY/WX    TMP DP  RH WIND       PRES   REMARKS
WORCESTER      CLOUDY    61  54  77 CALM      29.92F
FITCHBURG      CLOUDY    64  56  75 CALM      29.92F
ORANGE         CLOUDY    63  56  78 E5        29.90F
SPRINGFIELD    CLOUDY    63  55  76 CALM      29.90S
WESTFIELD      CLOUDY    64  56  75 E5        29.90F
NORTH ADAMS    CLOUDY    68  56  65 E10       29.87S
PITTSFIELD     CLOUDY    61  53  75 SW9       29.89S
$$

RIZALL-271800-
RHODE ISLAND

CITY           SKY/WX    TMP DP  RH WIND       PRES   REMARKS
PROVIDENCE     CLOUDY    63  58  83 S6        29.92F
NEWPORT        CLOUDY    58  56  93 S7        29.92F
BLOCK ISLAND   CLOUDY    56  54  93 SW10      29.95S
SMITHFIELD     CLOUDY    64  57  78 VRB5      29.92F
WESTERLY       CLOUDY    61  57  87 S7        29.93S
$$

CTZALL-271800-
CONNECTICUT

CITY           SKY/WX    TMP DP  RH WIND       PRES   REMARKS
BRADLEY INTL   CLOUDY    64  55  72 SE5       29.91F
HARTFORD       CLOUDY    64  56  75 E3        29.91S
BRIDGEPORT     CLOUDY    64  58  80 S5        29.92S
DANBURY        CLOUDY    62  58  86 CALM      29.92F
GROTON         FOG       57  56  96 S5        29.92S VSB 3/4
NEW HAVEN      CLOUDY    64  59  83 S6        29.92S
CHESTER          N/A     63  57  82 S3        29.93R
MERIDEN        CLOUDY    65  57  75 VRB5      29.92R
WILLIMANTIC    CLOUDY    65  57  75 S7        29.92F
OXFORD         CLOUDY    63  55  77 S3        29.93S
$$

MEZ002-015-021-024-NHZ003-005-008-011-012-014-VTZ005-008-271800-
NORTHERN NEW ENGLAND

CITY           SKY/WX    TMP DP  RH WIND       PRES   REMARKS
PORTLAND ME    CLOUDY    54  53  97 E3        29.95S FOG
BANGOR ME      CLOUDY    65  58  78 S8        29.93F
CONCORD NH     CLOUDY    62  57  83 CALM      29.91F
MANCHESTER NH  CLOUDY    62  54  74 CALM      29.90F
NASHUA NH      CLOUDY    61  56  83 CALM      29.92F
PORTSMOUTH NH  CLOUDY    54  52  92 SE5       29.92F
JAFFREY NH     CLOUDY    63  57  81 VRB3      29.91F
KEENE NH       CLOUDY    65  57  75 VRB3      29.90F
BURLINGTON VT  PTSUNNY   75  57  53 S12       29.81F
MT. WASHINGTON PTSUNNY   50  48  93 S10         N/A
$$

NYZ052-076-271800-
EASTERN NEW YORK

CITY           SKY/WX    TMP DP  RH WIND       PRES   REMARKS
ALBANY         CLOUDY    67  56  67 S12       29.88S
NEW YORK CITY  CLOUDY    68  57  68 S9        29.90S
$$

ANZALL-271800-
MARINE OBSERVATIONS

STATION/POSITION TIME  TEMP    WIND        PRES    VSBY  WAVE
                       AIR SEA DIR/SP/G                  HT/PER
                 (UTC) (F)     (DEG/KT/KT) (MB)    (MI)  (FT/S)
BOSTON BUOY      1550   50 48  290/  2/  4 1013.0          4/10
BUZZARDS BAY     1600   56     280/  1/  1 1014.1F
NANTUCKET SOUND  1650      50              1013.2F         2/ 9
MASS BAY-STELLWA 1604   48 45  360/  4/  4 1012.9F         4/ 9
ISLE OF SHOALS   1600   47      60/  9/  9 1013.6R
S OF BLOCK IS    1625      49                N/A           8/11
$$

......................KEY.........................
  SKY/WX - SKY CONDITION/PRESENT WEATHER
  TMP    - TEMPERATURE IN FAHRENHEIT
  DWPT   - DEWPOINT IN FAHRENHEIT
  RH     - RELATIVE HUMIDITY IN PERCENT
  WIND   - DIRECTION AND SPEED IN MPH
  PRES   - MEAN SEA LEVEL PRESSURE IN INCHES OF HG
  WCI    - WIND CHILL INDEX
  VSB    - VISIBILITY IN MILES
  HX     - HEAT INDEX
  TC     - TEMPERATURE IN CELSIUS
  VRB    - VARIABLE WIND DIRECTION
  N/A    - NOT AVAILABLE



USA.gov is the U.S. government's official web portal to all federal, state and local government web resources and services.